This demonstration page uses our WeatherBlox Daily Observations layout. Learn more.

Left ArrowRight Arrow

Hourly Observations for May 14, 2022

Temp ( °F °C ) Dew Point ( °F °C ) Humidity (%) Winds ( mph kmh ) Pressure ( in mb ) Visibility ( mi km ) Precip ( " mm )
12:53 am 00:53 Clear 67 19.4 0 -17.8 7 7 E 6 9 29.76 1008 10 16 0.00 0.00
1:53 am 01:53 Clear 65 18.3 3 -16.1 8 8 ENE 7 11 29.76 1008 10 16 0.00 0.00
2:53 am 02:53 Clear 62 16.7 10 -12.2 13 13 N 7 11 29.76 1008 10 16 0.00 0.00
3:53 am 03:53 Clear 59 15 13 -10.6 16 16 NNW 9 15 29.77 1008 10 16 0.00 0.00
4:53 am 04:53 Clear 58 14.4 17 -8.3 20 20 N 7 11 29.79 1009 10 16 0.00 0.00
5:53 am 05:53 Clear 58 14.4 28 -2.2 32 32 ENE 5 7 29.80 1009 10 16 0.00 0.00
6:53 am 06:53 Clear 67 19.4 58 14.4 73 73 ESE 8 13 29.81 1010 10 16 0.00 0.00
7:53 am 07:53 Sunny 69 20.6 61 16.1 76 76 SE 10 17 29.84 1010 10 16 0.00 0.00
8:53 am 08:53 Sunny 73 22.8 62 16.7 69 69 SSE 18 30 29.86 1011 10 16 0.00 0.00
9:53 am 09:53 Sunny 76 24.4 62 16.7 62 62 SSE 15 24 29.89 1012 10 16 0.00 0.00
10:53 am 10:53 Sunny 80 26.7 60 15.6 51 51 S 9 15 29.88 1012 10 16 0.00 0.00
11:53 am 11:53 Sunny 85 29.4 51 10.6 31 31 S 5 7 29.87 1012 10 16 0.00 0.00
12:53 pm 12:53 Sunny 90 32.2 30 -1.1 12 12 VRB 6 9 29.86 1011 10 16 0.00 0.00
1:53 pm 13:53 Sunny 95 35 13 -10.6 5 5 S 6 9 29.84 1010 10 16 0.00 0.00
2:53 pm 14:53 Sunny 97 36.1 -4 -20 2 2 VRB 5 7 29.81 1010 10 16 0.00 0.00
3:53 pm 15:53 Sunny 98 36.7 -17 -27.2 1 1 WSW 10 17 29.80 1009 10 16 0.00 0.00
4:53 pm 16:53 Sunny 98 36.7 -11 -23.9 1 1 WNW 7 11 29.77 1008 10 16 0.00 0.00
5:53 pm 17:53 Sunny 98 36.7 -9 -22.8 1 1 S 7 11 29.76 1008 10 16 0.00 0.00
6:53 pm 18:53 Sunny 98 36.7 -11 -23.9 1 1 Calm 29.74 1007 10 16 0.00 0.00
7:53 pm 19:53 Sunny 96 35.6 -10 -23.3 1 1 Calm 29.73 1007 10 16 0.00 0.00
8:53 pm 20:53 Clear 90 32.2 -7 -21.7 2 2 SSW 5 7 29.75 1008 10 16 0.00 0.00
9:53 pm 21:53 Clear 83 28.3 -4 -20 3 3 SE 5 7 29.78 1008 10 16 0.00 0.00
10:53 pm 22:53 Clear 79 26.1 -5 -20.6 3 3 SE 3 6 29.79 1009 10 16 0.00 0.00
11:53 pm 23:53 Clear 79 26.1 10 -12.2 7 7 SSE 10 17 29.80 1009 10 16 0.00 0.00

Powered by AerisWeather